DELTA 1 DEB, 10657

Orbit data source: Space-Track

DELTA 1 DEB, 10657 is space debris in SSO originally from a launch on Thu, 29 Jul 1976 UTC launched from the Air Force Western Test Range (AFWTR). Debris objects in space refer to the collection of defunct objects orbiting the Earth. Examples of debris include non-operational satellites, rocket bodies, and fragments generated from explosions, collisions, or faulty payload assembly.

Loading next visibility...
Identifier
10657, 1976-077T
Orbit
SSO
Country
Flag of USUS
Related business
Manufacturer
Unknown
Mission
Spacecraft
Bus & Motor
Unknown
Mass
Unknown
Launch date (UTC)
1976-07-29 (49 years ago)
Launch vehicle
Unknown
Launch site
Air Force Western Test Range (AFWTR)
Object type
Payload
Rocket body
Debris
Shape & HBR
Unknown shape, 0.6 m
Radar Cross Section
Medium (>0.1 m² and <1 m²)

Expand to show TLE details & history
Last TLE update: 16 hours ago

TLE from 16 hours ago
0 DELTA 1 DEB
1 10657U 76077T   25292.22324258 -.00000009  00000-0  32090-3 0  9991
2 10657 102.5749 270.1553 0083261 122.4688   9.3332 12.25769204202779
Epoch: 2025-10-19T05:21Z
TLE epoch observation values (Epoch: 2025-10-19T05:21:28.158Z)
Latitude
46.62605°
Longitude
-4.5666°
Altitude
1,509.126 km
Speed
7.144 km/s
True Right ascension
06h 54m 58s
True Declination
46° 28' 15"
Sunlit
Object was in daylight at epoch
Visualization orbit readout
Latitude
Unknown
Longitude
Unknown
Altitude
Unknown
Speed
Unknown
Apparent Right ascension
Unknown
Apparent Declination
Unknown
Sunlit
N/A
Visualization observer readout
Local Sidereal Time
15:46:26
Azimuth
Unknown
Elevation
Unknown
Doppler factor
Unknown
Orbital elements
Apogee altitude
1,631.276 km
Perigee altitude
1,499.003 km
Semi-major axis
7,943.277 km
Eccentricity
0.00833
Inclination
102.5749°
RAAN
270.1553°
Arg. of periapsis
122.4688°
True anomaly
9.48954°
Mean anomaly
9.3332°
Eccentric anomaly
9.41121°
Mean motion
3.0658 °/min
Orbital period
117.42 mins
BSTAR
0.0003209
Loading maneuver chart data...
Computing Atmospheric mass density...
Loading historical data...
Loading historical data...
Loading historical data...
Loading historical data...
Loading historical data...
Loading historical data...
Loading historical data...

Documentation

Showing up to 5 results
|